Tracking 35055 objects as of 18-Aug-2026
HD Live streaming from Space Station
objects crossing your sky now

CUBY-5

Track CUBY-5 now!
10-day predictions


NORAD ID: 69907
Int'l Code: 2026-156AQ
Launch date: July 7, 2026
Source: Germany (GER)
Launch site: AIR FORCE WESTERN TEST RANGE (AFWTR)
Your satellite tracking list
Your tracking list is empty




NASA's NSSDC Master Catalog

Two Line Element Set (TLE):
1 69907U 26156AQ  26230.15310365  .00000550  00000-0  61239-4 0  9993
2 69907  97.7456 129.8465 0003778  13.9445 346.1877 14.90978448  6238
Source of the keplerian elements: AFSPC